Tel Aviv, Israel

11:44 AM IST on December 19, 2018 (GMT +0200)
Ben Gurion

Weather History for LLBG - May, 2018

Change the Weather History Date:

Wednesday, May 16, 2018

  Actual Average Record
Temperature  
Mean Temperature 74 °F -  
Max Temperature 85 °F 81 °F 104 °F (2003)
Min Temperature 64 °F 64 °F 57 °F (2011)
Cooling Degree Days 10    
Growing Degree Days 24 (Base 50)    
Moisture  
Dew Point 62 °F    
Average Humidity 64    
Maximum Humidity 88    
Minimum Humidity 38    
Precipitation  
Precipitation 0.00 in - - ()
Sea Level Pressure  
Sea Level Pressure 29.93 in    
Wind  
Wind Speed 6 mph ()    
Max Wind Speed 16 mph    
Max Gust Speed -    
Visibility 6.1 miles    
Events      
Averages and records for this station are not official NWS values.
T = Trace of Precipitation, MM = Missing Value Source: Averaged Metar Reports

Daily Weather History Graph

Daily Weather History Graph

Search for Another Location

Airport or City:

Astronomy

May. 16, 2018 Rise Set
Actual Time 5:42 AM IDT 7:31 PM IDT
Civil Twilight 5:15 AM IDT 7:58 PM IDT
Nautical Twilight 4:43 AM IDT 8:30 PM IDT
Astronomical Twilight 4:08 AM IDT 9:05 PM IDT
Moon 6:35 AM IDT (5/16) 8:37 PM IDT (5/16)
Length of Visible Light 14h 42m
Length of Day
13h 48m
New Moon, 1% of the Moon is Illuminated
May 16
New Moon
May 22
First Quarter
May 29
Full
Jun 6
Last Quarter
Jun 13
New

Hourly Weather History & Observations

Time (IDT) Temp. Heat Index Dew Point Humidity Pressure Visibility Wind Dir Wind Speed Gust Speed Precip Events Conditions
12:20 AM 68.0 °F - 62.6 °F 83% 29.98 in 6.2 mi Variable 2.3 mph - N/A   Mostly Cloudy
12:50 AM 68.0 °F - 62.6 °F 83% 29.98 in 6.2 mi Variable 3.5 mph - N/A   Mostly Cloudy
1:20 AM 68.0 °F - 62.6 °F 83% 29.98 in 6.2 mi Variable 3.5 mph - N/A   Mostly Cloudy
1:50 AM 66.2 °F - 62.6 °F 88% 29.98 in 6.2 mi Variable 2.3 mph - N/A   Mostly Cloudy
2:20 AM 66.2 °F - 60.8 °F 83% 29.98 in 6.2 mi Variable 3.5 mph - N/A   Scattered Clouds
2:50 AM 64.4 °F - 60.8 °F 88% 29.95 in 6.2 mi ENE 4.6 mph - N/A   Scattered Clouds
3:00 AM 65 °F - 61 °F 84% 29.97 in 6 mi ENE 5.8 mph - -   Partly Cloudy
3:20 AM 66.2 °F - 60.8 °F 83% 29.95 in 6.2 mi East 4.6 mph - N/A   Mostly Cloudy
3:50 AM 66.2 °F - 60.8 °F 83% 29.95 in 6.2 mi East 4.6 mph - N/A   Mostly Cloudy
4:20 AM 66.2 °F - 60.8 °F 83% 29.95 in 6.2 mi East 4.6 mph - N/A   Mostly Cloudy
4:50 AM 66.2 °F - 60.8 °F 83% 29.98 in 6.2 mi Variable 3.5 mph - N/A   Mostly Cloudy
5:20 AM 68.0 °F - 60.8 °F 78% 29.95 in 6.2 mi Variable 2.3 mph - N/A   Mostly Cloudy
5:50 AM 66.2 °F - 60.8 °F 83% 29.95 in 5.6 mi NE 4.6 mph - N/A   Scattered Clouds
6:00 AM 66 °F - 61 °F 78% 29.97 in 6 mi ENE 4.6 mph - -   Mist
6:20 AM 66.2 °F - 60.8 °F 83% 29.98 in 5.6 mi ESE 4.6 mph - N/A   Mostly Cloudy
6:50 AM 69.8 °F - 60.8 °F 73% 29.98 in 5.6 mi SE 4.6 mph - N/A   Mostly Cloudy
7:20 AM 69.8 °F - 60.8 °F 73% 29.98 in 6.2 mi East 4.6 mph - N/A   Scattered Clouds
7:50 AM 71.6 °F - 62.6 °F 73% 29.98 in 6.2 mi Variable 3.5 mph - N/A   Scattered Clouds
8:20 AM 71.6 °F - 62.6 °F 73% 29.98 in 6.2 mi WNW 4.6 mph - N/A   Scattered Clouds
8:50 AM 73.4 °F - 62.6 °F 69% 29.98 in 6.2 mi North 8.1 mph - N/A   Partly Cloudy
9:00 AM 73 °F - 63 °F 62% 29.98 in 6 mi North 6.9 mph - -   Scattered Clouds
9:20 AM 73.4 °F - 62.6 °F 69% 29.98 in 6.2 mi North 6.9 mph - N/A   Partly Cloudy
9:50 AM 77.0 °F - 60.8 °F 57% 29.95 in - North 8.1 mph - N/A   Clear
10:20 AM 78.8 °F - 62.6 °F 57% 29.95 in - North 8.1 mph - N/A   Clear
10:50 AM 80.6 °F 81.5 °F 60.8 °F 51% 29.95 in - North 9.2 mph - N/A   Clear
11:20 AM 82.4 °F 83.4 °F 62.6 °F 51% 29.95 in - North 10.4 mph - N/A   Clear
11:50 AM 82.4 °F 83.9 °F 64.4 °F 54% 29.95 in - NNW 8.1 mph - N/A   Clear
12:00 PM 82 °F - 63 °F 43% 29.94 in 6 mi NW 10.4 mph - -   Clear
12:20 PM 82.4 °F 83.9 °F 64.4 °F 54% 29.92 in - NW 11.5 mph - N/A   Clear
12:50 PM 82.4 °F 84.6 °F 66.2 °F 58% 29.92 in - NW 12.7 mph - N/A   Clear
1:20 PM 82.4 °F 83.9 °F 64.4 °F 54% 29.92 in - NW 12.7 mph - N/A   Clear
1:50 PM 82.4 °F 82.9 °F 60.8 °F 48% 29.92 in - NW 12.7 mph - N/A   Clear
2:20 PM 84.2 °F 85.0 °F 62.6 °F 48% 29.89 in - NW 13.8 mph - N/A   Clear
2:50 PM 82.4 °F 83.4 °F 62.6 °F 51% 29.89 in - NW 15.0 mph - N/A   Clear
3:00 PM 83 °F - 62 °F 38% 29.91 in 6 mi NW 16.1 mph - -   Clear
3:20 PM 84.2 °F 85.0 °F 62.6 °F 48% 29.89 in - NW 12.7 mph - N/A   Clear
3:50 PM 82.4 °F 83.4 °F 62.6 °F 51% 29.89 in - NW 13.8 mph - N/A   Clear
4:20 PM 80.6 °F 81.8 °F 62.6 °F 54% 29.89 in - NW 12.7 mph - N/A   Clear
4:50 PM 82.4 °F 82.9 °F 60.8 °F 48% 29.89 in - North 12.7 mph - N/A   Clear
5:20 PM 82.4 °F 83.4 °F 62.6 °F 51% 29.89 in - NW 12.7 mph - N/A   Clear
5:50 PM 80.6 °F 81.5 °F 60.8 °F 51% 29.89 in - NNW 13.8 mph - N/A   Clear
6:00 PM 81 °F - 60 °F 38% 29.88 in 6 mi NNW 12.7 mph - -   Clear
6:20 PM 80.6 °F 81.1 °F 59.0 °F 48% 29.86 in - NNW 11.5 mph - N/A   Clear
6:50 PM 78.8 °F - 59.0 °F 51% 29.86 in - NNW 11.5 mph - N/A   Clear
7:20 PM 77.0 °F - 60.8 °F 57% 29.89 in - NNW 9.2 mph - N/A   Clear
7:50 PM 75.2 °F - 57.2 °F 53% 29.89 in - NNW 9.2 mph - N/A   Clear
8:20 PM 75.2 °F - 60.8 °F 61% 29.89 in - North 8.1 mph - N/A   Clear
8:50 PM 75.2 °F - 60.8 °F 61% 29.89 in - North 10.4 mph - N/A   Clear
9:00 PM 75 °F - 61 °F 52% 29.89 in 6 mi North 10.4 mph - -   Clear
9:20 PM 73.4 °F - 60.8 °F 65% 29.89 in - North 9.2 mph - N/A   Clear
9:50 PM 73.4 °F - 60.8 °F 65% 29.89 in - North 8.1 mph - N/A   Clear
10:20 PM 73.4 °F - 60.8 °F 65% 29.89 in - North 6.9 mph - N/A   Clear
10:50 PM 71.6 °F - 60.8 °F 69% 29.89 in - North 6.9 mph - N/A   Clear
11:20 PM 71.6 °F - 60.8 °F 69% 29.89 in - North 5.8 mph - N/A   Clear
11:50 PM 71.6 °F - 60.8 °F 69% 29.89 in - Variable 2.3 mph - N/A   Clear